This is the latest recevied weather packets stored in our database for station/object OK1FRN-6. If no packets are shown the sender has not sent any weather packets the latest 1 day(s).
| Time | Temp. | Humidity | Pressure | Rain* | Wind** | Luminosity | Snow |
|---|---|---|---|---|---|---|---|
| 1777994663 | 27.22° C | 34% | 1005.3 hPa | - | 0.45 m/s, 358° | - | - |
| 1777994355 | 26.67° C | 34% | 1005.3 hPa | - | 0.45 m/s, 11° | - | - |
| 1777994048 | 26.67° C | 35% | 1005.3 hPa | - | 0.45 m/s, 10° | - | - |
| 1777993433 | 27.22° C | 34% | 1005.4 hPa | - | 0.45 m/s, 39° | - | - |
| 1777993126 | 27.22° C | 34% | 1005.5 hPa | - | 0.45 m/s, 37° | - | - |
| 1777992818 | 27.78° C | 33% | 1005.6 hPa | - | 0.89 m/s, 53° | - | - |
| 1777992203 | 27.78° C | 34% | 1005.6 hPa | - | 0.89 m/s, 51° | - | - |
| 1777991281 | 27.78° C | 33% | 1005.7 hPa | - | 0.89 m/s, 345° | - | - |
| 1777990974 | 27.78° C | 33% | 1005.8 hPa | - | 0.45 m/s, 347° | - | - |
| 1777990667 | 27.78° C | 33% | 1005.8 hPa | - | 0.89 m/s, 354° | - | - |
| 1777990358 | 28.33° C | 32% | 1005.9 hPa | - | 0.89 m/s, 351° | - | - |
| 1777990051 | 28.33° C | 32% | 1006 hPa | - | 0.45 m/s, 349° | - | - |
| 1777989436 | 27.78° C | 34% | 1006.3 hPa | - | 0.89 m/s, 331° | - | - |
| 1777989129 | 27.22° C | 34% | 1006.3 hPa | - | 0.45 m/s, 316° | - | - |
| 1777988821 | 27.22° C | 34% | 1006.4 hPa | - | 0.45 m/s, 347° | - | - |
| 1777988514 | 27.22° C | 34% | 1006.4 hPa | - | 0.45 m/s, 350° | - | - |
| 1777987899 | 27.22° C | 34% | 1006.5 hPa | - | 0.45 m/s, 5° | - | - |
| 1777987591 | 27.78° C | 33% | 1006.5 hPa | - | 0.45 m/s, 55° | - | - |
| 1777986669 | 27.78° C | 32% | 1006.5 hPa | - | 0.45 m/s, 67° | - | - |
| 1777986361 | 28.33° C | 31% | 1006.5 hPa | - | 0.89 m/s, 129° | - | - |
| 1777985746 | 28.89° C | 32% | 1006.7 hPa | - | 0.45 m/s, 59° | - | - |
| 1777985131 | 28.33° C | 33% | 1006.6 hPa | - | 0.89 m/s, 354° | - | - |
| 1777984824 | 28.33° C | 32% | 1006.8 hPa | - | 0.89 m/s, 68° | - | - |
| 1777984516 | 28.33° C | 32% | 1006.9 hPa | - | 0.89 m/s, 32° | - | - |
| 1777983594 | 28.33° C | 33% | 1007 hPa | - | 0.89 m/s, 46° | - | - |
* Rain since midnight (hover to see other rain measurements)
** Current wind speed in m/s (hover to see current wind gust speed)